This is the latest recevied weather packets stored in our database for station/object KM4NDN. If no packets are shown the sender has not sent any weather packets the latest 10 day(s).
| Time | Temp. | Humidity | Pressure | Rain* | Wind** | Luminosity | Snow |
|---|---|---|---|---|---|---|---|
| 1777737851 | 3.89° C | 86% | 1016.9 hPa | 0 mm | - | 78 W/m² | - |
| 1777737550 | 3.89° C | 85% | 1016.9 hPa | 1.27 mm | - | 73 W/m² | - |
| 1777737248 | 3.89° C | 85% | 1016.9 hPa | 1.27 mm | - | 66 W/m² | - |
| 1777736942 | 3.89° C | 82% | 1017 hPa | 0 mm | - | 41 W/m² | - |
| 1777736025 | 5° C | 75% | 1016.7 hPa | 0 mm | - | 37 W/m² | - |
| 1777735722 | 5° C | 74% | 1016.8 hPa | 0 mm | - | 37 W/m² | - |
| 1777735420 | 5° C | 73% | 1016.5 hPa | 0 mm | - | 43 W/m² | - |
| 1777735118 | 5° C | 75% | 1016.7 hPa | 0 mm | - | 58 W/m² | - |
| 1777734814 | 5° C | 74% | 1016.8 hPa | 0 mm | - | 57 W/m² | - |
| 1777734512 | 5° C | 73% | 1016.6 hPa | 0 mm | - | 65 W/m² | - |
| 1777734208 | 5° C | 75% | 1016.6 hPa | 0 mm | - | 91 W/m² | - |
| 1777733904 | 5° C | 74% | 1016.5 hPa | 0 mm | - | 89 W/m² | - |
| 1777733601 | 5° C | 74% | 1016.3 hPa | 0 mm | - | 86 W/m² | - |
| 1777733297 | 5° C | 75% | 1016.4 hPa | 0 mm | - | 78 W/m² | - |
| 1777732995 | 5° C | 75% | 1016.2 hPa | 0 mm | - | 66 W/m² | - |
| 1777732690 | 5° C | 75% | 1016.3 hPa | 0 mm | - | 87 W/m² | - |
| 1777732388 | 5° C | 73% | 1016.2 hPa | 0 mm | - | 102 W/m² | - |
| 1777732086 | 5° C | 74% | 1016.1 hPa | 0 mm | - | 115 W/m² | - |
| 1777731782 | 5° C | 76% | 1015.9 hPa | 0 mm | - | 124 W/m² | - |
| 1777731479 | 5° C | 75% | 1016.2 hPa | 0 mm | - | 120 W/m² | - |
| 1777731177 | 5° C | 75% | 1016.1 hPa | 0 mm | - | 119 W/m² | - |
| 1777730875 | 5° C | 75% | 1015.9 hPa | 0 mm | - | 116 W/m² | - |
| 1777730572 | 5° C | 78% | 1016.1 hPa | 0 mm | - | 101 W/m² | - |
| 1777730268 | 5° C | 78% | 1015.7 hPa | 0 mm | - | 90 W/m² | - |
| 1777729965 | 5° C | 77% | 1015.8 hPa | 0 mm | - | 146 W/m² | - |
* Rain latest hour (hover to see other rain measurements)
** Current wind speed in m/s (hover to see current wind gust speed)